DW9313 Weather Reports


Display with metric or nautical units.
time (UTC)temp
F
wind
direction
speed
MPH
gust
MPH
rain 1hr
in
rain 24hr
in
rain mn
in
humidity
%
barometer
mb
20171216125326 44 294 2.0 6.0 0.00 0.00 0.00 94 1022.5
20171216124826 44 296 3.0 6.0 0.00 0.00 0.00 94 1022.6
20171216124326 44 283 0.0 5.0 0.00 0.00 0.00 94 1022.5
20171216123826 44 309 1.0 5.0 0.00 0.00 0.00 94 1022.5
20171216123327 44 288 1.0 5.0 0.00 0.00 0.00 94 1022.6
20171216122826 44 292 1.0 2.0 0.00 0.00 0.00 94 1022.6
20171216122327 43 291 0.0 2.0 0.00 0.00 0.00 94 1022.6
20171216121827 43 320 1.0 2.0 0.00 0.00 0.00 94 1022.6
20171216121326 43 314 1.0 5.0 0.00 0.00 0.00 94 1022.7
20171216120827 43 306 1.0 5.0 0.00 0.00 0.00 94 1022.7
20171216120327 43 309 0.0 2.0 0.00 0.00 0.00 94 1022.7
20171216115827 42 318 1.0 2.0 0.00 0.00 0.00 94 1022.7
20171216115327 42 350 0.0 0.0 0.00 0.00 0.00 93 1022.6
20171216114827 42 350 0.0 0.0 0.00 0.00 0.00 93 1022.6
20171216114327 42 350 0.0 0.0 0.00 0.00 0.00 93 1022.7
20171216113827 42 350 0.0 0.0 0.00 0.00 0.00 93 1022.7
20171216113327 42 350 0.0 0.0 0.00 0.00 0.00 93 1022.8
20171216112826 42 349 0.0 0.0 0.00 0.00 0.00 93 1022.7
20171216112331 42 349 0.0 1.0 0.00 0.00 0.00 93 1022.9
20171216111827 41 349 0.0 1.0 0.00 0.00 0.00 93 1022.9
20171216111328 41 349 0.0 0.0 0.00 0.00 0.00 93 1022.9
20171216110827 41 349 0.0 0.0 0.00 0.00 0.00 93 1022.9
20171216110327 41 350 0.0 1.0 0.00 0.00 0.00 93 1023.0
20171216105827 41 350 0.0 2.0 0.00 0.00 0.00 93 1022.9
20171216105329 41 320 1.0 5.0 0.00 0.00 0.00 94 1022.9
20171216104828 41 283 0.0 2.0 0.00 0.00 0.00 94 1022.9
20171216104327 41 283 2.0 5.0 0.00 0.00 0.00 94 1022.9
20171216103828 41 277 0.0 2.0 0.00 0.00 0.00 94 1022.8
20171216103328 41 337 2.0 2.0 0.00 0.00 0.00 94 1022.8
20171216102828 40 275 0.0 0.0 0.00 0.00 0.00 94 1022.7
20171216102328 40 275 0.0 0.0 0.00 0.00 0.00 94 1022.6
20171216101828 40 275 0.0 0.0 0.00 0.00 0.00 94 1022.6
20171216101327 40 278 0.0 1.0 0.00 0.00 0.00 94 1022.6
20171216100828 39 278 0.0 2.0 0.00 0.00 0.00 94 1022.6
20171216100328 39 278 0.0 0.0 0.00 0.00 0.00 94 1022.6
20171216095827 39 278 0.0 0.0 0.00 0.00 0.00 94 1022.4
20171216095329 38 278 0.0 0.0 0.00 0.00 0.00 94 1022.4
20171216094828 38 278 0.0 0.0 0.00 0.00 0.00 94 1022.3
20171216094328 38 278 0.0 1.0 0.00 0.00 0.00 94 1022.3
20171216093828 38 278 0.0 0.0 0.00 0.00 0.00 93 1022.3
20171216093328 38 278 0.0 0.0 0.00 0.00 0.00 93 1022.4
20171216092828 38 278 0.0 2.0 0.00 0.00 0.00 93 1022.4
20171216092328 38 291 1.0 2.0 0.00 0.00 0.00 93 1022.3
20171216091829 38 298 2.0 5.0 0.00 0.00 0.00 93 1022.4
20171216091328 38 288 2.0 6.0 0.00 0.00 0.00 92 1022.4
20171216090828 38 290 1.0 2.0 0.00 0.00 0.00 92 1022.4
20171216090328 38 307 2.0 6.0 0.00 0.00 0.00 92 1022.4
20171216085828 38 315 3.0 7.0 0.00 0.00 0.00 93 1022.4
20171216085329 37 312 2.0 6.0 0.00 0.00 0.00 93 1022.4
20171216084829 37 288 0.0 2.0 0.00 0.00 0.00 92 1022.4
20171216084328 37 291 1.0 5.0 0.00 0.00 0.00 93 1022.4
20171216083829 37 288 1.0 6.0 0.00 0.00 0.00 93 1022.3
20171216083328 37 297 2.0 5.0 0.00 0.00 0.00 93 1022.3
20171216082828 37 285 1.0 2.0 0.00 0.00 0.00 93 1022.3
20171216082329 37 280 1.0 2.0 0.00 0.00 0.00 93 1022.3
20171216081829 37 285 2.0 5.0 0.00 0.00 0.00 93 1022.3
20171216081329 37 284 1.0 6.0 0.00 0.00 0.00 93 1022.2
20171216080829 37 296 2.0 5.0 0.00 0.00 0.00 93 1022.3
20171216080329 37 286 1.0 5.0 0.00 0.00 0.00 93 1022.3
20171216075828 37 282 1.0 5.0 0.00 0.00 0.00 93 1022.3
20171216075329 36 274 1.0 2.0 0.00 0.00 0.00 93 1022.1
20171216074829 36 283 1.0 5.0 0.00 0.00 0.00 93 1022.2
20171216074329 36 297 2.0 6.0 0.00 0.00 0.00 94 1022.2
20171216073829 36 287 2.0 6.0 0.00 0.00 0.00 94 1022.2
20171216073329 35 284 2.0 6.0 0.00 0.00 0.00 95 1022.2
20171216072829 35 297 2.0 6.0 0.00 0.00 0.00 95 1022.2
20171216072329 35 288 2.0 6.0 0.00 0.00 0.00 94 1022.1
20171216071829 35 288 1.0 5.0 0.00 0.00 0.00 94 1022.1
20171216071329 35 291 0.0 2.0 0.00 0.00 0.00 94 1022.1
20171216070829 35 274 1.0 2.0 0.00 0.00 0.00 94 1022.1
20171216070330 35 254 0.0 2.0 0.00 0.00 0.00 94 1022.0
20171216065830 35 254 1.0 2.0 0.00 0.00 0.00 93 1021.9
20171216065330 36 271 1.0 2.0 0.00 0.00 0.00 93 1021.8
20171216064829 36 271 2.0 6.0 0.00 0.00 0.00 93 1021.8
20171216064330 37 277 3.0 8.0 0.00 0.00 0.00 93 1021.7
20171216063829 37 318 3.0 7.0 0.00 0.00 0.00 93 1021.8
20171216063336 37 297 4.0 8.0 0.00 0.00 0.00 93 1021.7
20171216062830 37 294 3.0 8.0 0.00 0.00 0.00 93 1021.7
20171216062329 37 297 6.0 12.0 0.00 0.00 0.00 93 1021.6
20171216061830 36 310 5.0 12.0 0.00 0.00 0.00 93 1021.5
20171216061329 36 315 5.0 12.0 0.00 0.00 0.00 93 1021.4
20171216060829 36 317 6.0 9.0 0.00 0.00 0.00 93 1021.3
20171216060330 36 306 4.0 8.0 0.00 0.00 0.00 93 1021.3
20171216055830 37 323 5.0 8.0 0.00 0.00 0.00 93 1021.3
20171216055330 37 316 5.0 8.0 0.00 0.00 0.00 93 1021.3
20171216054830 37 292 4.0 8.0 0.00 0.00 0.00 93 1021.3
20171216054330 36 287 4.0 14.0 0.00 0.00 0.00 93 1021.4
20171216053830 36 311 6.0 12.0 0.00 0.00 0.00 94 1021.3
20171216053330 36 314 5.0 12.0 0.00 0.00 0.00 94 1021.3
20171216052831 36 300 5.0 9.0 0.00 0.00 0.00 94 1021.5
20171216052333 36 311 4.0 8.0 0.00 0.00 0.00 93 1021.5
20171216051830 36 316 4.0 7.0 0.00 0.00 0.00 94 1021.4
20171216051330 36 314 4.0 7.0 0.00 0.00 0.00 93 1021.4
20171216050830 36 313 6.0 12.0 0.00 0.00 0.00 94 1021.5
20171216050330 36 323 5.0 9.0 0.00 0.00 0.00 94 1021.5
20171216045831 36 318 5.0 13.0 0.00 0.00 0.00 94 1021.6
20171216045330 36 321 7.0 14.0 0.00 0.00 0.00 94 1021.5
20171216044831 36 320 6.0 14.0 0.00 0.00 0.00 94 1021.4
20171216044330 36 320 7.0 13.0 0.00 0.00 0.00 94 1021.3
20171216043830 36 327 7.0 12.0 0.00 0.00 0.00 94 1021.2
20171216043330 36 323 7.0 12.0 0.00 0.00 0.00 94 1021.3
20171216042831 36 316 7.0 12.0 0.00 0.00 0.00 94 1021.3
20171216042330 36 320 7.0 12.0 0.00 0.00 0.00 94 1021.2
20171216041831 36 313 7.0 12.0 0.00 0.00 0.00 94 1021.2
20171216041330 35 316 7.0 9.0 0.00 0.00 0.00 94 1021.1
20171216040831 35 318 5.0 8.0 0.00 0.00 0.00 94 1020.9
20171216040331 35 321 4.0 8.0 0.00 0.00 0.00 94 1020.8
20171216035830 36 325 5.0 8.0 0.00 0.00 0.00 94 1020.7
20171216035331 36 327 4.0 7.0 0.00 0.00 0.00 94 1020.7
20171216034831 36 326 3.0 6.0 0.00 0.00 0.00 94 1020.7
20171216034331 36 334 2.0 6.0 0.00 0.00 0.00 94 1020.8
20171216033831 36 329 3.0 7.0 0.00 0.00 0.00 94 1020.8
20171216033331 35 334 2.0 7.0 0.00 0.00 0.00 95 1020.9
20171216032831 35 336 1.0 5.0 0.00 0.00 0.00 94 1020.9
20171216032331 35 325 0.0 0.0 0.00 0.00 0.00 94 1020.9
20171216031831 35 315 1.0 2.0 0.00 0.00 0.00 94 1020.8
20171216031331 36 293 1.0 2.0 0.00 0.00 0.00 94 1020.7
20171216030832 36 281 0.0 2.0 0.00 0.00 0.00 94 1020.6
20171216030332 36 277 1.0 8.0 0.00 0.00 0.00 94 1020.6
20171216025832 36 288 2.0 6.0 0.00 0.00 0.00 94 1020.6
20171216025331 36 295 3.0 7.0 0.00 0.00 0.00 94 1020.6
20171216024832 36 304 3.0 8.0 0.00 0.00 0.00 94 1020.5
20171216024331 36 305 3.0 7.0 0.00 0.00 0.00 94 1020.4
20171216023831 36 301 3.0 7.0 0.00 0.00 0.00 94 1020.4
20171216023331 36 306 2.0 6.0 0.00 0.00 0.00 94 1020.3
20171216022832 36 289 2.0 6.0 0.00 0.00 0.00 94 1020.3
20171216022332 36 324 2.0 8.0 0.00 0.00 0.00 94 1020.3
20171216021831 36 336 2.0 8.0 0.00 0.00 0.00 94 1020.3
20171216021332 36 323 5.0 8.0 0.00 0.00 0.00 94 1020.3
20171216020832 36 321 3.0 8.0 0.00 0.00 0.00 94 1020.3
20171216020332 36 319 6.0 12.0 0.00 0.00 0.00 94 1020.2
20171216015832 36 314 4.0 9.0 0.00 0.00 0.00 94 1020.2
20171216015331 36 317 5.0 12.0 0.00 0.00 0.00 94 1020.1
20171216014832 36 311 6.0 9.0 0.00 0.00 0.00 94 1020.0
20171216014332 36 306 6.0 12.0 0.00 0.00 0.00 94 1020.0
20171216013832 36 309 5.0 9.0 0.00 0.00 0.00 94 1019.9
20171216013332 36 304 3.0 8.0 0.00 0.00 0.00 94 1019.9
20171216012832 36 300 3.0 8.0 0.00 0.00 0.00 94 1019.9
20171216012332 36 295 4.0 8.0 0.00 0.00 0.00 94 1019.9
20171216011832 36 306 2.0 6.0 0.00 0.00 0.00 94 1019.9
20171216011332 36 294 2.0 6.0 0.00 0.00 0.00 94 1019.9
20171216010832 36 347 2.0 6.0 0.00 0.00 0.00 94 1019.8
20171216010332 36 306 3.0 6.0 0.00 0.00 0.00 94 1019.8
20171216005832 36 322 3.0 6.0 0.00 0.00 0.00 94 1019.8
20171216005332 37 302 3.0 8.0 0.00 0.00 0.00 94 1019.7
20171216004833 37 316 1.0 8.0 0.00 0.00 0.00 94 1019.7
20171216004332 37 322 3.0 8.0 0.00 0.00 0.00 94 1019.7
20171216003832 37 316 3.0 6.0 0.00 0.00 0.00 94 1019.7
20171216003333 37 317 4.0 8.0 0.00 0.00 0.00 94 1019.6
20171216002833 37 315 3.0 6.0 0.00 0.00 0.00 94 1019.6
20171216002333 37 311 4.0 9.0 0.00 0.00 0.00 94 1019.5
20171216001832 37 307 5.0 12.0 0.00 0.00 0.00 94 1019.4
20171216001332 37 312 5.0 12.0 0.00 0.00 0.00 94 1019.3
20171216000902 37 304 4.0 12.0 0.00 0.00 0.00 94 1019.2
20171216000333 37 312 6.0 9.0 0.00 0.00 0.00 94 1019.2
20171215235832 37 307 6.0 10.0 0.00 0.00 0.00 94 1019.1
20171215235333 37 317 6.0 12.0 0.00 0.00 0.00 94 1019.1
20171215234835 37 309 6.0 12.0 0.00 0.00 0.00 94 1019.1
20171215234334 37 309 7.0 14.0 0.00 0.00 0.00 94 1019.0
20171215233833 37 315 7.0 13.0 0.00 0.00 0.00 94 1018.9
20171215233333 37 313 7.0 12.0 0.00 0.00 0.00 94 1018.8
20171215232834 37 317 7.0 13.0 0.00 0.00 0.00 94 1018.7
20171215232334 37 314 7.0 13.0 0.00 0.00 0.00 94 1018.6
20171215231833 37 315 9.0 14.0 0.00 0.00 0.00 94 1018.5
20171215231333 37 313 7.0 14.0 0.00 0.00 0.00 94 1018.4
20171215230833 37 301 9.0 16.0 0.00 0.00 0.00 94 1018.4
20171215230333 37 315 7.0 12.0 0.00 0.00 0.00 94 1018.3
20171215225833 37 303 7.0 12.0 0.00 0.00 0.00 94 1018.3
20171215225333 37 318 7.0 12.0 0.00 0.00 0.00 94 1018.3
20171215224833 37 321 5.0 12.0 0.00 0.00 0.00 94 1018.3
20171215224333 37 321 5.0 12.0 0.00 0.00 0.00 94 1018.3
20171215223833 38 319 6.0 12.0 0.00 0.00 0.00 94 1018.2
20171215223334 38 319 6.0 9.0 0.00 0.00 0.00 94 1018.2
20171215222834 38 316 6.0 12.0 0.00 0.00 0.00 94 1018.2
20171215222333 38 331 5.0 12.0 0.00 0.00 0.00 94 1018.2
20171215221833 38 320 5.0 12.0 0.00 0.00 0.00 94 1018.2
20171215221333 38 323 6.0 12.0 0.00 0.00 0.00 94 1018.2
20171215220834 38 323 5.0 9.0 0.00 0.00 0.00 94 1018.1
20171215220334 38 327 3.0 9.0 0.00 0.00 0.00 94 1018.1
20171215215833 37 319 5.0 8.0 0.00 0.00 0.00 94 1018.0
20171215215334 37 305 4.0 8.0 0.00 0.00 0.00 94 1018.0
20171215214834 37 321 1.0 6.0 0.00 0.00 0.00 94 1018.1
20171215214334 37 305 0.0 6.0 0.00 0.00 0.00 94 1018.1
20171215213834 38 344 2.0 6.0 0.00 0.00 0.00 94 1018.0
20171215213333 38 333 1.0 5.0 0.00 0.00 0.00 94 1018.0
20171215212834 38 344 2.0 12.0 0.00 0.00 0.00 94 1017.9
20171215212334 38 322 5.0 12.0 0.00 0.00 0.00 94 1017.8
20171215211834 38 326 6.0 8.0 0.00 0.00 0.00 94 1017.8
20171215211334 38 327 6.0 9.0 0.00 0.00 0.00 93 1017.7
20171215210834 38 310 5.0 12.0 0.00 0.00 0.00 93 1017.7
20171215210335 38 309 6.0 14.0 0.00 0.00 0.00 93 1017.6
20171215205834 38 316 6.0 14.0 0.00 0.00 0.00 93 1017.6
20171215205334 38 314 5.0 12.0 0.00 0.00 0.00 93 1017.5
20171215204834 39 322 6.0 15.0 0.00 0.00 0.00 93 1017.5
20171215204334 39 324 7.0 13.0 0.00 0.00 0.00 93 1017.5
20171215203834 39 317 7.0 14.0 0.00 0.00 0.00 93 1017.4
20171215203335 39 315 7.0 13.0 0.00 0.00 0.00 93 1017.4
20171215202835 39 313 5.0 9.0 0.00 0.00 0.00 93 1017.4
20171215202334 39 317 6.0 12.0 0.00 0.00 0.00 93 1017.4
20171215201834 39 310 6.0 12.0 0.00 0.00 0.00 93 1017.3
20171215201334 39 313 6.0 13.0 0.00 0.00 0.00 93 1017.2
20171215200835 39 316 6.0 13.0 0.00 0.00 0.00 93 1017.2
20171215200335 39 311 6.0 12.0 0.00 0.00 0.00 92 1017.1
20171215195835 39 317 6.0 12.0 0.00 0.00 0.00 92 1017.2
20171215195335 39 314 6.0 12.0 0.00 0.00 0.00 92 1017.2
20171215194835 39 317 6.0 13.0 0.00 0.00 0.00 92 1017.1
20171215194335 39 313 7.0 14.0 0.00 0.00 0.00 92 1017.1
20171215193835 39 319 6.0 13.0 0.00 0.00 0.00 92 1017.1
20171215193335 40 306 6.0 13.0 0.00 0.00 0.00 92 1017.0
20171215192835 40 309 7.0 12.0 0.00 0.00 0.00 92 1017.0
20171215192335 40 312 7.0 14.0 0.00 0.00 0.00 92 1016.9
20171215191835 40 318 6.0 14.0 0.00 0.00 0.00 92 1016.8
20171215191335 40 311 6.0 12.0 0.00 0.00 0.00 92 1016.7
20171215190836 40 315 6.0 12.0 0.00 0.00 0.00 92 1016.6
20171215190335 40 313 6.0 14.0 0.00 0.00 0.00 92 1016.5
20171215185835 40 315 7.0 16.0 0.00 0.00 0.00 92 1016.4
20171215185335 40 313 7.0 13.0 0.00 0.00 0.00 92 1016.3
20171215184836 40 314 7.0 12.0 0.00 0.00 0.00 91 1016.2
20171215184336 40 316 5.0 9.0 0.00 0.00 0.00 91 1016.2
20171215183835 40 326 7.0 12.0 0.00 0.00 0.00 91 1016.0
20171215183336 40 315 6.0 12.0 0.00 0.00 0.00 91 1015.9
20171215182836 40 320 6.0 12.0 0.00 0.00 0.00 91 1015.8
20171215182335 40 312 6.0 12.0 0.00 0.00 0.00 91 1015.8
20171215181836 41 310 6.0 13.0 0.00 0.00 0.00 91 1015.6
20171215181335 41 317 7.0 13.0 0.00 0.00 0.00 91 1015.6
20171215180836 41 320 7.0 12.0 0.00 0.00 0.00 91 1015.5
20171215180335 41 318 7.0 13.0 0.00 0.00 0.00 91 1015.5
20171215175835 41 304 8.0 14.0 0.00 0.00 0.00 91 1015.5
20171215175336 41 310 7.0 16.0 0.00 0.00 0.00 91 1015.5
20171215174836 41 299 6.0 12.0 0.00 0.00 0.00 90 1015.3
20171215174336 41 309 5.0 12.0 0.00 0.00 0.00 90 1015.2
20171215173836 41 299 6.0 12.0 0.00 0.00 0.00 90 1015.1
20171215173336 41 293 5.0 12.0 0.00 0.00 0.00 90 1015.1
20171215172835 41 308 6.0 14.0 0.00 0.00 0.00 90 1015.1
20171215172337 41 312 6.0 13.0 0.00 0.00 0.00 90 1015.0
20171215171836 41 311 6.0 12.0 0.00 0.00 0.00 89 1014.9
20171215171336 41 318 6.0 14.0 0.00 0.00 0.00 89 1014.8
20171215170836 41 311 7.0 12.0 0.00 0.00 0.00 89 1014.7
20171215170336 41 321 5.0 12.0 0.00 0.00 0.00 88 1014.6
20171215165837 42 313 5.0 9.0 0.00 0.00 0.00 88 1014.6
20171215165336 42 316 6.0 10.0 0.00 0.00 0.00 88 1014.6
20171215164838 42 311 6.0 12.0 0.00 0.00 0.00 88 1014.5
20171215164337 42 306 6.0 12.0 0.00 0.00 0.00 87 1014.3
20171215163837 42 292 5.0 9.0 0.00 0.00 0.00 87 1014.2
20171215163337 42 317 5.0 8.0 0.00 0.00 0.00 87 1014.1
20171215162837 42 302 4.0 8.0 0.00 0.00 0.00 87 1014.1
20171215162337 42 318 4.0 8.0 0.00 0.00 0.00 86 1014.0
20171215161836 43 313 3.0 9.0 0.00 0.00 0.00 86 1014.0
20171215161337 43 318 5.0 12.0 0.00 0.00 0.00 86 1014.0
20171215160837 43 313 6.0 9.0 0.00 0.00 0.00 86 1013.9
20171215160337 43 310 5.0 8.0 0.00 0.00 0.00 85 1013.9
20171215155837 43 320 6.0 12.0 0.00 0.00 0.00 85 1013.8
20171215155337 43 311 7.0 14.0 0.00 0.00 0.00 85 1013.6
20171215154837 44 311 7.0 13.0 0.00 0.00 0.00 84 1013.6
20171215154337 44 319 8.0 14.0 0.00 0.00 0.00 84 1013.4
20171215153838 44 322 11.0 20.0 0.00 0.00 0.00 84 1013.4
20171215153337 44 314 7.0 15.0 0.00 0.00 0.00 84 1013.3
20171215152837 44 324 9.0 18.0 0.00 0.00 0.00 83 1013.1
20171215152337 44 321 10.0 16.0 0.00 0.00 0.00 83 1013.0
20171215151838 44 322 10.0 20.0 0.00 0.00 0.00 82 1012.9
20171215151337 44 312 10.0 20.0 0.00 0.00 0.00 82 1012.9
20171215150837 44 321 9.0 18.0 0.00 0.00 0.00 82 1012.8
20171215150337 45 316 8.0 14.0 0.00 0.00 0.00 82 1012.8
20171215145837 45 328 10.0 16.0 0.00 0.00 0.00 81 1012.7
20171215145337 45 322 11.0 22.0 0.00 0.00 0.00 81 1012.6
20171215144837 45 324 10.0 15.0 0.00 0.00 0.00 80 1012.4
20171215144337 45 323 13.0 20.0 0.00 0.00 0.00 79 1012.2
20171215143837 45 329 12.0 20.0 0.00 0.00 0.00 79 1012.0
20171215143337 45 322 13.0 21.0 0.00 0.00 0.00 80 1012.0
20171215142837 45 322 13.0 22.0 0.00 0.00 0.00 79 1011.9
20171215142337 45 322 13.0 20.0 0.00 0.00 0.00 79 1011.8
20171215141838 45 323 11.0 22.0 0.00 0.00 0.00 80 1011.8
20171215141338 45 330 12.0 20.0 0.00 0.00 0.00 79 1011.8
20171215140838 45 312 12.0 18.0 0.00 0.00 0.00 79 1011.8
20171215140338 45 327 13.0 18.0 0.00 0.00 0.00 79 1011.7
20171215135838 45 328 13.0 21.0 0.00 0.00 0.00 79 1011.8
20171215135337 45 319 12.0 20.0 0.00 0.00 0.00 79 1011.7
20171215134838 45 326 9.0 16.0 0.00 0.01 0.00 80 1011.7
20171215134338 45 321 12.0 22.0 0.00 0.01 0.00 79 1011.7
20171215133838 45 322 12.0 22.0 0.00 0.01 0.00 79 1011.6
20171215133338 45 321 10.0 18.0 0.00 0.01 0.00 80 1011.5
20171215132838 45 322 13.0 22.0 0.00 0.01 0.00 79 1011.4
20171215132338 45 321 13.0 22.0 0.00 0.01 0.00 80 1011.3
20171215131838 45 325 13.0 22.0 0.00 0.01 0.00 80 1011.2
20171215131338 45 315 10.0 15.0 0.00 0.01 0.00 80 1011.1
20171215130838 45 320 12.0 20.0 0.00 0.01 0.00 79 1011.2
20171215130338 45 311 13.0 21.0 0.00 0.01 0.00 79 1011.1
20171215125838 45 316 10.0 20.0 0.00 0.01 0.00 79 1011.1